User: anonymous   Login
Location: Cow Canyon Saddle
(34.2291°N, 117.6698°W)
Time: 08:26:04
(UTC-07:00)
Language:

Lacrosse 5 - Orbit

View from above orbital plane
View from above orbital plane
View from above satellite
View from above satellite

Ground track
Ground track

The orbit data is extracted from the following two-line orbital elements,

1 28646U 05016A   17294.20840300 0.00000000  00000-0  00000-0 0    01
2 28646  57.0100  16.0947 0004000  53.2341 306.7658 14.51912532    08
Epoch (UTC): 21 October 2017 05:00:06
Eccentricity: 0.0004000
inclination: 57.0100°
perigee height: 716 km
apogee height: 722 km
right ascension of ascending node: 16.0947°
argument of perigee: 53.2341°
revolutions per day: 14.51912532
mean anomaly at epoch: 306.7658°
orbit number at epoch: 0

The dashed part of the orbit path shows where the satellite is in the earth's shadow,  

DLR